Hourly Data Report for May 31, 2021

OTTAWA INTL A
ONTARIO
Current Station Operator: NAVCAN

45°19'00.000" N
75°40'00.000" W
114.90 m
6106001
71628
YOW

Download Data

Hourly Data (May 2021)
Hourly Data Report for May 31, 2021
TIME
LST
Temp Definition
°C
Dew Point Definition
°C
Rel Hum Definition
%
Precip. Amount Definition
mm

Wind Dir Definition
10's deg

Wind Spd Definition
km/h
Visibility Definition
km
Stn Press Definition
kPa
Hmdx Definition


Wind Chill Definition


Weather Definition


00:00 7.9 4.1 77   6 7 24.1 101.03     LegendNANA
01:00 5.2 3.6 89   8 4 24.1 101.00     Clear
02:00 7.4 4.2 80   36 2 24.1 101.00     LegendNANA
03:00 5.9 4.0 88   30 7 24.1 101.01     LegendNANA
04:00 6.1 4.7 91   30 5 24.1 101.04     Clear
05:00 6.5 4.6 88   31 7 24.1 101.05     LegendNANA
06:00 10.2 6.3 77   3 5 24.1 101.05     LegendNANA
07:00 12.6 6.4 66   34 4 24.1 101.05     Clear
08:00 14.2 6.1 58   36 5 24.1 101.05     LegendNANA
09:00 16.2 6.2 51   1 4 24.1 101.02     LegendNANA
10:00 17.2 4.9 44   33 10 24.1 100.99     Clear
11:00 19.0 4.5 38   25 12 24.1 100.93     LegendNANA
12:00 21.1 3.8 32   27 11 24.1 100.84     LegendNANA
13:00 22.9 1.6 24   29 17 24.1 100.76     Mainly Clear
14:00 22.5 -0.3 22   31 21 24.1 100.71     LegendNANA
15:00 23.2 -0.3 21   32 21 24.1 100.65     LegendNANA
16:00 23.5 0.1 21   30 24 24.1 100.61     Mainly Clear
17:00 23.2 0.6 22   30 20 24.1 100.58     LegendNANA
18:00 22.7 1.5 24   30 17 24.1 100.55     LegendNANA
19:00 21.2 1.5 27   31 9 24.1 100.55     Mainly Clear
20:00 18.2 5.8 44   18 11 24.1 100.59     LegendNANA
21:00 15.5 5.0 49   17 10 24.1 100.61     LegendNANA
22:00 13.5 5.1 57   19 10 24.1 100.61     Mainly Clear
23:00 13.4 4.8 56   23 7 24.1 100.61     LegendNANA

Notes on Data Quality.

Legend

  • E = Estimated
  • M = Missing
  • NA = Not Available*
  • [empty] = Indicates an unobserved value
Date modified: